Saint Louis, Missouri, United States (63101)
Lat: 38.63N, Lon: 90.2W
Wx Zone: MOZ064
Local Info
Past Weather Observations for Today

NOTE: This archive is for the closest National Weather Service station to Saint Louis. Information may differ from the station used for current weather conditions.

Click here for Long-term Archive

Time Weather Temperature Dewpoint Humidity Pressure Winds Precip Visibility
17:53
Clear
32°F / 0°C 21°F / -6°C 64% 30.36 in
(1028 mb)
ESE 5.8 mph
(ESE 9 kph)
- 10SM
16:53
Clear
34°F / 1°C 19°F / -7°C 56% 30.39 in
(1029 mb)
SE 6.9 mph
(SE 11 kph)
- 10SM
15:53
Clear
34°F / 1°C 19°F / -7°C 56% 30.39 in
(1029 mb)
E 10.4 mph
(E 17 kph)
- 10SM
14:53
Clear
34°F / 1°C 18°F / -8°C 51% 30.45 in
(1031 mb)
ESE 5.8 mph
(ESE 9 kph)
- 10SM
13:53
Clear
34°F / 1°C 18°F / -8°C 51% 30.45 in
(1031 mb)
ESE 8.1 mph
(ESE 13 kph)
- 10SM
12:53
Clear
36°F / 2°C 18°F / -8°C 48% 30.51 in
(1033 mb)
SE 8.1 mph
(SE 13 kph)
0.00 in
(0.00 mm)
10SM
11:53
Clear
Light Rain
34°F / 1°C 18°F / -8°C 51% 30.54 in
(1034 mb)
E 11.5 mph
(E 19 kph)
0.00 in
(0.00 mm)
10SM
10:53
Clear
34°F / 1°C 19°F / -7°C 56% 30.57 in
(1035 mb)
E 8.1 mph
(E 13 kph)
- 10SM
09:53
Clear
Hazy
27°F / -3°C 21°F / -6°C 80% 30.57 in
(1035 mb)
Calm - 5SM
08:53
Clear
Fog And Mist
21°F / -6°C 19°F / -7°C 93% 30.57 in
(1035 mb)
Calm - 5SM
07:53
Clear
Fog And Mist
14°F / -10°C 12°F / -11°C 92% 30.57 in
(1035 mb)
Calm - 5SM
06:53
Clear
Fog And Mist
12°F / -11°C 9°F / -13°C 85% 30.57 in
(1035 mb)
Calm - 3SM
05:53
Clear
Fog And Mist
10°F / -12°C 7°F / -14°C 85% 30.57 in
(1035 mb)
Calm - 4SM
04:53
Clear
Fog And Mist
10°F / -12°C 7°F / -14°C 85% 30.54 in
(1034 mb)
Calm - 4SM
03:53
Clear
Fog And Mist
10°F / -12°C 7°F / -14°C 85% 30.54 in
(1034 mb)
Calm - 4SM
03:31
Clear
Fog And Mist
10°F / -12°C 9°F / -13°C 92% 30.54 in
(1034 mb)
Calm - 3SM
03:22
Clear
Fog And Mist
10°F / -12°C 7°F / -14°C 85% 30.54 in
(1034 mb)
Calm - 2 1/2SM
03:03
Clear
Fog And Mist
12°F / -11°C 10°F / -12°C 92% 30.54 in
(1034 mb)
Calm - 4SM
02:53
Clear
Fog And Mist
12°F / -11°C 10°F / -12°C 92% 30.54 in
(1034 mb)
Calm - 2 1/2SM
02:45
Clear
Fog And Mist
12°F / -11°C 9°F / -13°C 85% 30.54 in
(1034 mb)
Calm - 2 1/2SM
02:21
Clear
Fog And Mist
12°F / -11°C 10°F / -12°C 92% 30.54 in
(1034 mb)
Calm - 4SM
01:53
Clear
Fog And Mist
14°F / -10°C 12°F / -11°C 92% 30.54 in
(1034 mb)
Calm - 2 1/2SM
01:43
Clear
Fog And Mist
12°F / -11°C 10°F / -12°C 92% 30.54 in
(1034 mb)
Calm - 2SM
01:34
Clear
Fog And Mist
12°F / -11°C 12°F / -11°C 100% 30.54 in
(1034 mb)
Calm - 1SM
01:29
Obscured
Fog And Mist
12°F / -11°C 12°F / -11°C 100% 30.54 in
(1034 mb)
Calm - 3/4SM
01:04
Obscured
Fog
14°F / -10°C 12°F / -11°C 92% 30.54 in
(1034 mb)
Calm - 1/4SM
00:53
Clear
Fog And Mist
16°F / -9°C 14°F / -10°C 93% 30.51 in
(1033 mb)
NW 3.5 mph
(NW 6 kph)
- 3/4SM
00:35
Clear
Fog
16°F / -9°C 12°F / -11°C 86% 30.51 in
(1033 mb)
Calm - 1/4SM
00:24
Clear
Fog And Mist
18°F / -8°C 14°F / -10°C 86% 30.51 in
(1033 mb)
Calm - 1 1/2SM
00:14
Clear
Fog
16°F / -9°C 16°F / -9°C 100% 30.51 in
(1033 mb)
Calm - 1/2SM
00:04
Clear
Fog
16°F / -9°C 16°F / -9°C 100% 30.51 in
(1033 mb)
Calm - 1/4SM
Time Weather Temperature Dewpoint Humidity Pressure Winds Precip Visibility


Weather for websites

WeatherForYou.com, LLC is not responsible for any damages or problems caused by this service. Current weather conditions are obtained from the closest station including government and personal stations which may have varying degrees of accuracy. Weather forecasts are derived from the NOAA NDFD. Like all things, this site belongs to Jesus Christ... He just trusts me to maintain it. If you have any questions or comments email webmaster@weatherforyou.com

Copyright © 2015, WeatherForYou.com LLC. All rights reserved.